| time (UTC) | temp C | wind direction | speed KPH | gust KPH | rain 1hr cm | rain 24hr cm | rain mn cm | humidity % | barometer mb |
| 20260507221519 | 18 | 202 | 6.4 | 16.1 | 0.00 | 0.00 | 0.00 | 40 | 1014.6 |
| 20260507221019 | 18 | 344 | 3.2 | 16.1 | 0.00 | 0.00 | 0.00 | 37 | 1014.5 |
| 20260507220519 | 18 | 273 | 9.7 | 25.7 | 0.00 | 0.00 | 0.00 | 39 | 1014.6 |
| 20260507220019 | 18 | 252 | 0.0 | 25.7 | 0.00 | 0.00 | 0.00 | 36 | 1014.6 |
| 20260507215519 | 18 | 235 | 3.2 | 22.5 | 0.00 | 0.00 | 0.00 | 36 | 1014.8 |
| 20260507215018 | 18 | 247 | 3.2 | 22.5 | 0.00 | 0.00 | 0.00 | 35 | 1014.6 |
| 20260507214018 | 18 | 200 | 0.0 | 19.3 | 0.00 | 0.00 | 0.00 | 38 | 1014.7 |
| 20260507213518 | 18 | 292 | 6.4 | 19.3 | 0.00 | 0.00 | 0.00 | 37 | 1014.6 |
| 20260507213018 | 18 | 254 | 9.7 | 12.9 | 0.00 | 0.00 | 0.00 | 38 | 1014.5 |
| 20260507212519 | 18 | 1 | 6.4 | 12.9 | 0.00 | 0.00 | 0.00 | 36 | 1014.5 |
| 20260507212018 | 18 | 247 | 3.2 | 19.3 | 0.00 | 0.00 | 0.00 | 35 | 1014.5 |
| 20260507211518 | 18 | 218 | 12.9 | 19.3 | 0.00 | 0.00 | 0.00 | 35 | 1014.4 |
| 20260507211018 | 18 | 200 | 9.7 | 29.0 | 0.00 | 0.00 | 0.00 | 36 | 1014.5 |
| 20260507210518 | 18 | 295 | 6.4 | 29.0 | 0.00 | 0.00 | 0.00 | 36 | 1014.5 |
| 20260507210018 | 18 | 341 | 6.4 | 22.5 | 0.00 | 0.00 | 0.00 | 37 | 1014.5 |
| 20260507205518 | 18 | 262 | 6.4 | 22.5 | 0.00 | 0.00 | 0.00 | 37 | 1014.4 |
| 20260507205018 | 18 | 293 | 3.2 | 19.3 | 0.00 | 0.00 | 0.00 | 37 | 1014.5 |
| 20260507204518 | 18 | 349 | 0.0 | 22.5 | 0.00 | 0.00 | 0.00 | 35 | 1014.4 |
| 20260507204018 | 18 | 100 | 9.7 | 22.5 | 0.00 | 0.00 | 0.00 | 36 | 1014.4 |
| 20260507203518 | 18 | 42 | 6.4 | 19.3 | 0.00 | 0.00 | 0.00 | 36 | 1014.4 |
| 20260507203018 | 18 | 280 | 9.7 | 22.5 | 0.00 | 0.00 | 0.00 | 36 | 1014.4 |
| 20260507202518 | 18 | 347 | 3.2 | 22.5 | 0.00 | 0.00 | 0.00 | 36 | 1014.4 |
| 20260507202018 | 18 | 8 | 9.7 | 19.3 | 0.00 | 0.00 | 0.00 | 37 | 1014.4 |
| 20260507201518 | 18 | 353 | 3.2 | 25.7 | 0.00 | 0.00 | 0.00 | 34 | 1014.5 |
| 20260507201018 | 18 | 272 | 3.2 | 25.7 | 0.00 | 0.00 | 0.00 | 34 | 1014.3 |
| 20260507200018 | 18 | 357 | 3.2 | 19.3 | 0.00 | 0.00 | 0.00 | 36 | 1014.4 |
| 20260507195017 | 18 | 241 | 3.2 | 16.1 | 0.00 | 0.00 | 0.00 | 36 | 1014.5 |
| 20260507194517 | 18 | 251 | 6.4 | 19.3 | 0.00 | 0.00 | 0.00 | 38 | 1014.5 |
| 20260507194018 | 18 | 199 | 3.2 | 19.3 | 0.00 | 0.00 | 0.00 | 42 | 1014.6 |
| 20260507193517 | 18 | 16 | 6.4 | 19.3 | 0.00 | 0.00 | 0.00 | 38 | 1014.6 |
| 20260507193018 | 18 | 349 | 0.0 | 19.3 | 0.00 | 0.00 | 0.00 | 41 | 1014.6 |
| 20260507192517 | 18 | 247 | 3.2 | 19.3 | 0.00 | 0.00 | 0.00 | 40 | 1014.6 |
| 20260507192018 | 18 | 252 | 3.2 | 19.3 | 0.00 | 0.00 | 0.00 | 37 | 1014.5 |
| 20260507191518 | 18 | 26 | 6.4 | 22.5 | 0.00 | 0.00 | 0.00 | 36 | 1014.6 |
| 20260507191017 | 18 | 272 | 0.0 | 22.5 | 0.00 | 0.00 | 0.00 | 35 | 1014.7 |
| 20260507185517 | 18 | 86 | 3.2 | 16.1 | 0.00 | 0.00 | 0.00 | 36 | 1014.8 |
| 20260507185017 | 18 | 238 | 3.2 | 16.1 | 0.00 | 0.00 | 0.00 | 39 | 1014.9 |
| 20260507184517 | 18 | 188 | 6.4 | 16.1 | 0.00 | 0.00 | 0.00 | 36 | 1014.8 |
| 20260507184017 | 17 | 300 | 3.2 | 16.1 | 0.00 | 0.00 | 0.00 | 42 | 1014.9 |
| 20260507183517 | 18 | 58 | 16.1 | 22.5 | 0.00 | 0.00 | 0.00 | 40 | 1014.9 |
| 20260507183017 | 17 | 43 | 9.7 | 22.5 | 0.00 | 0.00 | 0.00 | 39 | 1015.0 |
| 20260507182517 | 18 | 339 | 9.7 | 22.5 | 0.00 | 0.00 | 0.00 | 36 | 1014.8 |
| 20260507182017 | 17 | 189 | 3.2 | 9.7 | 0.00 | 0.00 | 0.00 | 39 | 1015.1 |
| 20260507181517 | 17 | 92 | 3.2 | 12.9 | 0.00 | 0.00 | 0.00 | 37 | 1015.0 |
| 20260507180017 | 17 | 17 | 9.7 | 25.7 | 0.00 | 0.00 | 0.00 | 40 | 1015.1 |
| 20260507175517 | 17 | 53 | 3.2 | 25.7 | 0.00 | 0.00 | 0.00 | 37 | 1015.3 |
| 20260507174517 | 17 | 25 | 6.4 | 25.7 | 0.00 | 0.00 | 0.00 | 40 | 1015.1 |
| 20260507174017 | 17 | 254 | 9.7 | 19.3 | 0.00 | 0.00 | 0.00 | 43 | 1015.2 |
| 20260507173516 | 17 | 247 | 6.4 | 25.7 | 0.00 | 0.00 | 0.00 | 45 | 1015.3 |
| 20260507173017 | 17 | 337 | 9.7 | 25.7 | 0.00 | 0.00 | 0.00 | 43 | 1015.3 |
| 20260507172017 | 17 | 323 | 3.2 | 12.9 | 0.00 | 0.00 | 0.00 | 44 | 1015.6 |
| 20260507171516 | 16 | 150 | 0.0 | 16.1 | 0.00 | 0.00 | 0.00 | 42 | 1015.7 |
| 20260507171016 | 16 | 1 | 6.4 | 16.1 | 0.00 | 0.00 | 0.00 | 43 | 1015.7 |
| 20260507170516 | 16 | 50 | 9.7 | 19.3 | 0.00 | 0.00 | 0.00 | 46 | 1015.9 |
| 20260507170017 | 16 | 60 | 6.4 | 35.4 | 0.00 | 0.00 | 0.00 | 43 | 1016.0 |
| 20260507164516 | 16 | 75 | 6.4 | 29.0 | 0.00 | 0.00 | 0.00 | 43 | 1016.3 |
| 20260507164016 | 16 | 233 | 12.9 | 29.0 | 0.00 | 0.00 | 0.00 | 45 | 1016.2 |
| 20260507163516 | 16 | 326 | 9.7 | 16.1 | 0.00 | 0.00 | 0.00 | 46 | 1016.4 |
| 20260507163016 | 16 | 41 | 0.0 | 16.1 | 0.00 | 0.00 | 0.00 | 43 | 1016.1 |
| 20260507162016 | 16 | 261 | 3.2 | 22.5 | 0.00 | 0.00 | 0.00 | 44 | 1016.2 |
| 20260507161516 | 16 | 278 | 9.7 | 22.5 | 0.00 | 0.00 | 0.00 | 43 | 1016.3 |
| 20260507161016 | 16 | 278 | 6.4 | 12.9 | 0.00 | 0.00 | 0.00 | 48 | 1016.3 |
| 20260507160516 | 16 | 242 | 3.2 | 19.3 | 0.00 | 0.00 | 0.00 | 45 | 1016.3 |
| 20260507160016 | 16 | 227 | 6.4 | 19.3 | 0.00 | 0.00 | 0.00 | 45 | 1016.4 |
| 20260507155516 | 16 | 305 | 9.7 | 19.3 | 0.00 | 0.00 | 0.00 | 49 | 1016.5 |
| 20260507155016 | 15 | 186 | 6.4 | 16.1 | 0.00 | 0.00 | 0.00 | 48 | 1016.4 |
| 20260507154516 | 15 | 240 | 6.4 | 12.9 | 0.00 | 0.00 | 0.00 | 51 | 1016.4 |
| 20260507153516 | 15 | 313 | 3.2 | 16.1 | 0.00 | 0.00 | 0.00 | 49 | 1016.4 |
| 20260507153016 | 14 | 24 | 3.2 | 16.1 | 0.00 | 0.00 | 0.00 | 49 | 1016.3 |
| 20260507152016 | 14 | 349 | 6.4 | 25.7 | 0.00 | 0.00 | 0.00 | 51 | 1016.3 |
| 20260507151515 | 13 | 1 | 3.2 | 25.7 | 0.00 | 0.00 | 0.00 | 50 | 1016.1 |
| 20260507145516 | 13 | 84 | 3.2 | 12.9 | 0.00 | 0.00 | 0.00 | 54 | 1016.3 |
| 20260507145016 | 13 | 248 | 0.0 | 16.1 | 0.00 | 0.00 | 0.00 | 53 | 1016.2 |
| 20260507144516 | 13 | 338 | 6.4 | 19.3 | 0.00 | 0.00 | 0.00 | 50 | 1016.1 |
| 20260507144015 | 13 | 41 | 9.7 | 19.3 | 0.00 | 0.00 | 0.00 | 51 | 1016.2 |
| 20260507143515 | 13 | 331 | 3.2 | 19.3 | 0.00 | 0.00 | 0.00 | 52 | 1016.1 |
| 20260507142515 | 13 | 220 | 0.0 | 22.5 | 0.00 | 0.00 | 0.00 | 56 | 1016.2 |
| 20260507141516 | 12 | 300 | 6.4 | 22.5 | 0.00 | 0.00 | 0.00 | 54 | 1016.1 |
| 20260507141015 | 12 | 82 | 0.0 | 16.1 | 0.00 | 0.00 | 0.00 | 54 | 1016.1 |
| 20260507140515 | 12 | 306 | 6.4 | 19.3 | 0.00 | 0.00 | 0.00 | 55 | 1016.1 |
| 20260507140015 | 12 | 330 | 6.4 | 19.3 | 0.00 | 0.00 | 0.00 | 55 | 1016.1 |
| 20260507134515 | 12 | 62 | 9.7 | 19.3 | 0.00 | 0.00 | 0.00 | 55 | 1016.3 |
| 20260507134015 | 12 | 51 | 6.4 | 16.1 | 0.00 | 0.00 | 0.00 | 56 | 1016.3 |
| 20260507133515 | 12 | 337 | 9.7 | 16.1 | 0.00 | 0.00 | 0.00 | 55 | 1016.4 |
| 20260507133015 | 12 | 331 | 3.2 | 16.1 | 0.00 | 0.00 | 0.00 | 58 | 1016.4 |
| 20260507132015 | 12 | 297 | 3.2 | 12.9 | 0.00 | 0.00 | 0.00 | 60 | 1016.3 |
| 20260507131515 | 11 | 334 | 3.2 | 16.1 | 0.00 | 0.00 | 0.00 | 63 | 1016.2 |
| 20260507131015 | 11 | 38 | 0.0 | 16.1 | 0.00 | 0.00 | 0.00 | 65 | 1016.2 |
| 20260507130514 | 11 | 357 | 3.2 | 16.1 | 0.00 | 0.00 | 0.00 | 65 | 1016.2 |
| 20260507130015 | 11 | 44 | 9.7 | 16.1 | 0.00 | 0.00 | 0.00 | 64 | 1016.1 |
| 20260507125515 | 10 | 329 | 3.2 | 16.1 | 0.00 | 0.00 | 0.00 | 67 | 1016.3 |
| 20260507125015 | 10 | 359 | 12.9 | 19.3 | 0.00 | 0.00 | 0.00 | 68 | 1016.4 |
| 20260507124515 | 10 | 36 | 9.7 | 19.3 | 0.00 | 0.00 | 0.00 | 69 | 1016.4 |
| 20260507124014 | 10 | 88 | 6.4 | 19.3 | 0.00 | 0.00 | 0.00 | 68 | 1016.5 |
| 20260507123514 | 10 | 17 | 3.2 | 16.1 | 0.00 | 0.00 | 0.00 | 70 | 1016.4 |
| 20260507123015 | 10 | 24 | 6.4 | 16.1 | 0.00 | 0.00 | 0.00 | 70 | 1016.5 |
| 20260507122514 | 10 | 334 | 6.4 | 12.9 | 0.00 | 0.00 | 0.00 | 71 | 1016.6 |
| 20260507121514 | 10 | 266 | 3.2 | 12.9 | 0.00 | 0.00 | 0.00 | 74 | 1016.6 |
| 20260507120514 | 9 | 48 | 0.0 | 9.7 | 0.00 | 0.00 | 0.00 | 75 | 1016.6 |
| 20260507120014 | 8 | 34 | 3.2 | 12.9 | 0.00 | 0.00 | 0.00 | 77 | 1016.6 |
| 20260507115014 | 8 | 244 | 0.0 | 12.9 | 0.00 | 0.00 | 0.00 | 79 | 1016.7 |
| 20260507114014 | 8 | 221 | 9.7 | 9.7 | 0.00 | 0.00 | 0.00 | 81 | 1016.4 |
| 20260507113514 | 7 | 59 | 3.2 | 9.7 | 0.00 | 0.00 | 0.00 | 84 | 1016.4 |
| 20260507113014 | 7 | 18 | 0.0 | 9.7 | 0.00 | 0.00 | 0.00 | 87 | 1016.4 |
| 20260507112514 | 6 | 347 | 0.0 | 6.4 | 0.00 | 0.00 | 0.00 | 89 | 1016.3 |
| 20260507112014 | 5 | 7 | 0.0 | 3.2 | 0.00 | 0.00 | 0.00 | 90 | 1016.1 |
| 20260507111514 | 5 | 320 | 0.0 | 3.2 | 0.00 | 0.00 | 0.00 | 90 | 1016.0 |
| 20260507111013 | 5 | 261 | 0.0 | 6.4 | 0.00 | 0.00 | 0.00 | 91 | 1015.9 |
| 20260507110514 | 5 | 259 | 0.0 | 6.4 | 0.00 | 0.00 | 0.00 | 91 | 1015.8 |
| 20260507110014 | 5 | 22 | 0.0 | 6.4 | 0.00 | 0.00 | 0.00 | 91 | 1015.6 |
| 20260507105514 | 5 | 342 | 0.0 | 6.4 | 0.00 | 0.00 | 0.00 | 92 | 1015.6 |
| 20260507105014 | 5 | 8 | 0.0 | 3.2 | 0.00 | 0.00 | 0.00 | 92 | 1015.5 |
| 20260507104514 | 5 | 30 | 0.0 | 3.2 | 0.00 | 0.00 | 0.00 | 92 | 1015.5 |
| 20260507104015 | 5 | 282 | 0.0 | 3.2 | 0.00 | 0.00 | 0.00 | 92 | 1015.4 |
| 20260507103513 | 5 | 275 | 0.0 | 3.2 | 0.00 | 0.00 | 0.00 | 92 | 1015.5 |
| 20260507103013 | 5 | 41 | 0.0 | 3.2 | 0.00 | 0.00 | 0.00 | 92 | 1015.4 |
| 20260507102514 | 5 | 53 | 0.0 | 3.2 | 0.00 | 0.00 | 0.00 | 92 | 1015.4 |
| 20260507101513 | 5 | 350 | 0.0 | 3.2 | 0.00 | 0.00 | 0.00 | 92 | 1015.3 |
| 20260507100514 | 6 | 350 | 0.0 | 0.0 | 0.00 | 0.00 | 0.00 | 92 | 1015.5 |
| 20260507100013 | 6 | 350 | 0.0 | 3.2 | 0.00 | 0.00 | 0.00 | 92 | 1015.4 |
| 20260507095513 | 6 | 345 | 0.0 | 3.2 | 0.00 | 0.00 | 0.00 | 92 | 1015.5 |
| 20260507094513 | 5 | 86 | 3.2 | 3.2 | 0.00 | 0.00 | 0.00 | 92 | 1015.4 |
| 20260507093513 | 5 | 142 | 0.0 | 0.0 | 0.00 | 0.00 | 0.00 | 92 | 1015.3 |
| 20260507093013 | 5 | 142 | 0.0 | 0.0 | 0.00 | 0.03 | 0.00 | 92 | 1015.3 |
| 20260507092513 | 5 | 141 | 0.0 | 0.0 | 0.00 | 0.03 | 0.00 | 92 | 1015.1 |
| 20260507092013 | 5 | 141 | 0.0 | 0.0 | 0.00 | 0.03 | 0.00 | 92 | 1015.1 |
| 20260507091013 | 5 | 141 | 0.0 | 0.0 | 0.00 | 0.03 | 0.00 | 92 | 1015.0 |
| 20260507090513 | 5 | 141 | 0.0 | 0.0 | 0.00 | 0.03 | 0.00 | 92 | 1015.0 |
| 20260507090013 | 5 | 141 | 0.0 | 0.0 | 0.00 | 0.03 | 0.00 | 91 | 1015.1 |
| 20260507085512 | 5 | 141 | 0.0 | 0.0 | 0.00 | 0.03 | 0.00 | 91 | 1015.0 |
| 20260507085013 | 5 | 141 | 0.0 | 0.0 | 0.00 | 0.03 | 0.00 | 91 | 1015.1 |
| 20260507084512 | 5 | 141 | 0.0 | 0.0 | 0.00 | 0.03 | 0.00 | 91 | 1015.0 |
| 20260507083513 | 5 | 141 | 0.0 | 0.0 | 0.00 | 0.05 | 0.00 | 91 | 1015.0 |
| 20260507083013 | 5 | 141 | 0.0 | 0.0 | 0.00 | 0.05 | 0.00 | 91 | 1015.0 |
| 20260507082012 | 5 | 141 | 0.0 | 0.0 | 0.00 | 0.05 | 0.00 | 91 | 1014.9 |
| 20260507081512 | 5 | 142 | 0.0 | 0.0 | 0.00 | 0.08 | 0.00 | 91 | 1014.9 |
| 20260507081012 | 5 | 141 | 0.0 | 0.0 | 0.00 | 0.08 | 0.00 | 91 | 1014.9 |
| 20260507075512 | 6 | 141 | 0.0 | 0.0 | 0.00 | 0.08 | 0.00 | 91 | 1014.9 |
| 20260507075012 | 6 | 141 | 0.0 | 0.0 | 0.00 | 0.10 | 0.00 | 91 | 1014.9 |
| 20260507074512 | 6 | 141 | 0.0 | 0.0 | 0.00 | 0.13 | 0.00 | 91 | 1015.0 |
| 20260507074012 | 6 | 141 | 0.0 | 0.0 | 0.00 | 0.13 | 0.00 | 91 | 1015.0 |
| 20260507073512 | 6 | 141 | 0.0 | 0.0 | 0.00 | 0.15 | 0.00 | 91 | 1015.0 |
| 20260507072512 | 6 | 141 | 0.0 | 0.0 | 0.00 | 0.18 | 0.00 | 91 | 1015.0 |
| 20260507071012 | 6 | 141 | 0.0 | 0.0 | 0.00 | 0.23 | 0.00 | 91 | 1015.0 |
| 20260507070013 | 6 | 141 | 0.0 | 0.0 | 0.00 | 0.25 | 0.00 | 91 | 1015.0 |
| 20260507065512 | 6 | 141 | 0.0 | 0.0 | 0.00 | 0.25 | 0.00 | 91 | 1014.9 |
| 20260507065012 | 6 | 141 | 0.0 | 0.0 | 0.00 | 0.25 | 0.00 | 91 | 1014.9 |
| 20260507064512 | 6 | 141 | 0.0 | 0.0 | 0.00 | 0.28 | 0.00 | 90 | 1015.1 |
| 20260507064012 | 6 | 141 | 0.0 | 0.0 | 0.00 | 0.28 | 0.00 | 90 | 1015.1 |
| 20260507063011 | 6 | 142 | 0.0 | 0.0 | 0.00 | 0.41 | 0.00 | 90 | 1015.0 |
| 20260507062011 | 6 | 142 | 0.0 | 0.0 | 0.00 | 0.43 | 0.00 | 90 | 1015.4 |
| 20260507061511 | 6 | 142 | 0.0 | 0.0 | 0.00 | 0.43 | 0.00 | 90 | 1015.4 |
| 20260507061011 | 6 | 141 | 0.0 | 0.0 | 0.00 | 0.43 | 0.00 | 90 | 1015.5 |
| 20260507060512 | 6 | 142 | 0.0 | 0.0 | 0.00 | 0.46 | 0.00 | 89 | 1015.2 |
| 20260507060011 | 6 | 142 | 0.0 | 0.0 | 0.00 | 0.46 | 0.00 | 89 | 1015.2 |
| 20260507055511 | 6 | 142 | 0.0 | 0.0 | 0.00 | 0.46 | 0.00 | 89 | 1015.1 |
| 20260507055011 | 6 | 141 | 0.0 | 0.0 | 0.00 | 0.48 | 0.00 | 88 | 1015.1 |
| 20260507054512 | 7 | 141 | 0.0 | 0.0 | 0.00 | 0.58 | 0.00 | 88 | 1015.1 |
| 20260507054011 | 7 | 141 | 0.0 | 0.0 | 0.00 | 0.66 | 0.00 | 88 | 1015.0 |
| 20260507053511 | 7 | 142 | 0.0 | 0.0 | 0.00 | 0.81 | 0.00 | 87 | 1015.0 |
| 20260507053011 | 7 | 141 | 0.0 | 0.0 | 0.00 | 0.97 | 0.00 | 87 | 1015.1 |
| 20260507052011 | 7 | 141 | 0.0 | 0.0 | 0.00 | 0.97 | 0.00 | 87 | 1015.1 |
| 20260507051011 | 8 | 141 | 0.0 | 0.0 | 0.00 | 0.97 | 0.00 | 87 | 1015.2 |
| 20260507050511 | 8 | 141 | 0.0 | 0.0 | 0.00 | 0.97 | 0.00 | 87 | 1015.1 |
| 20260507050011 | 8 | 141 | 0.0 | 0.0 | 0.00 | 0.97 | 0.00 | 87 | 1015.2 |
| 20260507045510 | 8 | 141 | 0.0 | 0.0 | 0.00 | 0.97 | 0.00 | 86 | 1015.2 |
| 20260507045011 | 8 | 141 | 0.0 | 0.0 | 0.00 | 0.97 | 0.00 | 86 | 1015.0 |
| 20260507044011 | 8 | 142 | 0.0 | 0.0 | 0.00 | 0.97 | 0.00 | 85 | 1015.2 |
| 20260507043510 | 8 | 141 | 0.0 | 0.0 | 0.00 | 0.97 | 0.00 | 85 | 1015.3 |
| 20260507043011 | 8 | 141 | 0.0 | 0.0 | 0.00 | 0.99 | 0.00 | 85 | 1015.2 |
| 20260507042510 | 8 | 142 | 0.0 | 0.0 | 0.00 | 0.99 | 0.00 | 85 | 1015.3 |
| 20260507042010 | 8 | 141 | 0.0 | 0.0 | 0.00 | 0.99 | 0.00 | 84 | 1015.2 |
| 20260507041010 | 8 | 141 | 0.0 | 0.0 | 0.00 | 1.04 | 0.00 | 82 | 1015.3 |
| 20260507040510 | 8 | 141 | 0.0 | 0.0 | 0.00 | 1.04 | 0.00 | 82 | 1015.3 |
| 20260507040010 | 8 | 141 | 0.0 | 0.0 | 0.00 | 1.04 | 0.00 | 82 | 1015.4 |
| 20260507035510 | 8 | 141 | 0.0 | 0.0 | 0.00 | 1.04 | 1.04 | 83 | 1015.3 |
| 20260507035010 | 8 | 141 | 0.0 | 0.0 | 0.00 | 1.04 | 1.04 | 82 | 1015.3 |
| 20260507034510 | 8 | 141 | 0.0 | 0.0 | 0.00 | 1.04 | 1.04 | 82 | 1015.3 |
| 20260507034010 | 8 | 141 | 0.0 | 0.0 | 0.00 | 1.04 | 1.04 | 82 | 1015.3 |
| 20260507033510 | 8 | 142 | 0.0 | 0.0 | 0.00 | 1.07 | 1.04 | 81 | 1015.2 |
| 20260507033010 | 8 | 141 | 0.0 | 0.0 | 0.00 | 1.07 | 1.04 | 81 | 1015.2 |
| 20260507032510 | 8 | 141 | 0.0 | 0.0 | 0.00 | 1.07 | 1.04 | 81 | 1015.2 |
| 20260507032010 | 8 | 141 | 0.0 | 0.0 | 0.00 | 1.07 | 1.04 | 80 | 1015.1 |
| 20260507031510 | 9 | 142 | 0.0 | 0.0 | 0.00 | 1.07 | 1.04 | 79 | 1015.1 |
| 20260507031010 | 9 | 142 | 0.0 | 0.0 | 0.00 | 1.07 | 1.04 | 79 | 1015.1 |
| 20260507030010 | 9 | 141 | 0.0 | 0.0 | 0.00 | 1.09 | 1.04 | 77 | 1015.0 |
| 20260507025510 | 9 | 141 | 0.0 | 0.0 | 0.00 | 1.09 | 1.04 | 77 | 1014.9 |
| 20260507025010 | 10 | 141 | 0.0 | 0.0 | 0.00 | 1.09 | 1.04 | 77 | 1014.8 |
| 20260507024509 | 10 | 141 | 0.0 | 0.0 | 0.00 | 1.09 | 1.04 | 76 | 1014.7 |
| 20260507023509 | 10 | 142 | 0.0 | 0.0 | 0.00 | 1.09 | 1.04 | 76 | 1014.7 |
| 20260507023009 | 10 | 141 | 0.0 | 0.0 | 0.00 | 1.09 | 1.04 | 76 | 1014.7 |
| 20260507022009 | 10 | 141 | 0.0 | 0.0 | 0.00 | 1.09 | 1.04 | 75 | 1014.4 |
| 20260507021510 | 10 | 141 | 0.0 | 0.0 | 0.00 | 1.09 | 1.04 | 75 | 1014.3 |
| 20260507021009 | 10 | 141 | 0.0 | 0.0 | 0.00 | 1.09 | 1.04 | 74 | 1014.4 |
| 20260507020509 | 10 | 141 | 0.0 | 0.0 | 0.00 | 1.09 | 1.04 | 74 | 1014.4 |
| 20260507015509 | 11 | 141 | 0.0 | 0.0 | 0.00 | 1.09 | 1.04 | 73 | 1014.2 |
| 20260507015009 | 11 | 141 | 0.0 | 0.0 | 0.00 | 1.12 | 1.04 | 72 | 1014.1 |
| 20260507014509 | 11 | 141 | 0.0 | 0.0 | 0.00 | 1.12 | 1.04 | 70 | 1014.1 |
| 20260507014009 | 12 | 140 | 0.0 | 0.0 | 0.00 | 1.12 | 1.04 | 70 | 1014.0 |
| 20260507013009 | 12 | 141 | 0.0 | 0.0 | 0.00 | 1.12 | 1.04 | 68 | 1014.1 |
| 20260507012509 | 12 | 141 | 0.0 | 0.0 | 0.00 | 1.12 | 1.04 | 68 | 1014.2 |
| 20260507011009 | 12 | 24 | 0.0 | 9.7 | 0.00 | 1.12 | 1.04 | 66 | 1014.1 |
| 20260507010514 | 13 | 76 | 3.2 | 6.4 | 0.00 | 1.12 | 1.04 | 66 | 1014.1 |
| 20260507010009 | 13 | 357 | 0.0 | 6.4 | 0.00 | 1.12 | 1.04 | 65 | 1014.2 |
| 20260507005509 | 13 | 269 | 0.0 | 19.3 | 0.00 | 1.12 | 1.04 | 65 | 1014.1 |
| 20260507004509 | 13 | 211 | 3.2 | 16.1 | 0.00 | 1.12 | 1.04 | 65 | 1014.0 |
| 20260507004009 | 13 | 263 | 0.0 | 16.1 | 0.00 | 1.12 | 1.04 | 64 | 1014.0 |
| 20260507003509 | 13 | 343 | 0.0 | 6.4 | 0.00 | 1.12 | 1.04 | 66 | 1014.0 |
| 20260507003009 | 13 | 45 | 0.0 | 6.4 | 0.00 | 1.12 | 1.04 | 66 | 1013.9 |
| 20260507002008 | 13 | 220 | 0.0 | 6.4 | 0.00 | 1.14 | 1.04 | 65 | 1013.9 |
| 20260507001509 | 13 | 219 | 0.0 | 6.4 | 0.00 | 1.17 | 1.04 | 65 | 1013.7 |
| 20260507001008 | 13 | 113 | 0.0 | 6.4 | 0.00 | 1.19 | 1.04 | 65 | 1013.8 |
| 20260507000509 | 14 | 236 | 3.2 | 9.7 | 0.00 | 1.19 | 1.04 | 65 | 1013.5 |
| 20260507000008 | 14 | 234 | 0.0 | 9.7 | 0.00 | 1.19 | 1.04 | 65 | 1013.4 |
| 20260506235508 | 14 | 202 | 0.0 | 3.2 | 0.00 | 1.19 | 1.04 | 66 | 1013.4 |
| 20260506235008 | 14 | 346 | 0.0 | 6.4 | 0.00 | 1.19 | 1.04 | 65 | 1013.3 |
| 20260506234508 | 14 | 322 | 0.0 | 6.4 | 0.00 | 1.19 | 1.04 | 65 | 1013.5 |
| 20260506234008 | 14 | 230 | 0.0 | 6.4 | 0.00 | 1.19 | 1.04 | 64 | 1013.6 |
| 20260506233508 | 15 | 216 | 0.0 | 3.2 | 0.00 | 1.19 | 1.04 | 64 | 1013.4 |
| 20260506233008 | 15 | 210 | 3.2 | 9.7 | 0.00 | 1.19 | 1.04 | 64 | 1013.3 |
| 20260506232508 | 15 | 209 | 0.0 | 9.7 | 0.00 | 1.19 | 1.04 | 63 | 1013.4 |
| 20260506232008 | 15 | 103 | 6.4 | 6.4 | 0.00 | 1.19 | 1.04 | 62 | 1013.3 |
| 20260506231508 | 15 | 27 | 0.0 | 6.4 | 0.00 | 1.22 | 1.04 | 62 | 1013.1 |
| 20260506231008 | 15 | 27 | 0.0 | 6.4 | 0.00 | 1.22 | 1.04 | 61 | 1013.2 |
| 20260506230508 | 15 | 242 | 0.0 | 6.4 | 0.00 | 1.22 | 1.04 | 61 | 1013.6 |
| 20260506230008 | 15 | 53 | 0.0 | 6.4 | 0.00 | 1.22 | 1.04 | 61 | 1013.0 |
| 20260506225508 | 15 | 280 | 0.0 | 6.4 | 0.00 | 1.22 | 1.04 | 60 | 1012.8 |
| 20260506225008 | 15 | 3 | 3.2 | 6.4 | 0.00 | 1.22 | 1.04 | 60 | 1012.7 |
| 20260506224508 | 15 | 218 | 0.0 | 6.4 | 0.00 | 1.22 | 1.04 | 61 | 1012.5 |
| 20260506224008 | 15 | 254 | 3.2 | 12.9 | 0.00 | 1.22 | 1.04 | 59 | 1012.5 |
| 20260506223508 | 15 | 177 | 0.0 | 12.9 | 0.00 | 1.22 | 1.04 | 59 | 1012.8 |
| 20260506223008 | 15 | 223 | 6.4 | 9.7 | 0.00 | 1.22 | 1.04 | 57 | 1012.9 |
| 20260506222507 | 16 | 354 | 0.0 | 6.4 | 0.00 | 1.22 | 1.04 | 58 | 1012.4 |
| 20260506222008 | 15 | 359 | 0.0 | 12.9 | 0.00 | 1.22 | 1.04 | 58 | 1012.8 |